This is the latest recevied weather packets stored in our database for station/object KN6DHD. If no packets are shown the sender has not sent any weather packets the latest 10 day(s).
| Time | Temp. | Humidity | Pressure | Rain* | Wind** | Luminosity | Snow |
|---|---|---|---|---|---|---|---|
| 1777913612 | 14.44° C | 81% | 1016 hPa | 0 mm | - | 105 W/m² | - |
| 1777913308 | 14.44° C | 82% | 1016.1 hPa | 0 mm | - | 94 W/m² | - |
| 1777913005 | 14.44° C | 82% | 1016.1 hPa | 0 mm | - | 83 W/m² | - |
| 1777912701 | 15° C | 81% | 1016 hPa | 0 mm | - | 115 W/m² | - |
| 1777912397 | 14.44° C | 82% | 1016 hPa | 0 mm | - | 154 W/m² | - |
| 1777912094 | 14.44° C | 83% | 1015.7 hPa | 0 mm | - | 177 W/m² | - |
| 1777911789 | 14.44° C | 83% | 1016 hPa | 0 mm | - | 153 W/m² | - |
| 1777911486 | 14.44° C | 84% | 1016.1 hPa | 0 mm | - | 139 W/m² | - |
| 1777911183 | 13.89° C | 85% | 1015.8 hPa | 0 mm | - | 94 W/m² | - |
| 1777910881 | 13.89° C | 85% | 1016.1 hPa | 0 mm | - | 74 W/m² | - |
| 1777910577 | 13.89° C | 85% | 1015.9 hPa | 0 mm | - | 69 W/m² | - |
| 1777910274 | 13.89° C | 86% | 1015.7 hPa | 0 mm | - | 77 W/m² | - |
| 1777909971 | 13.89° C | 86% | 1015.6 hPa | 0 mm | - | 82 W/m² | - |
| 1777909668 | 13.89° C | 87% | 1015.6 hPa | 0 mm | - | 89 W/m² | - |
| 1777909365 | 13.89° C | 88% | 1015.5 hPa | 0 mm | - | 79 W/m² | - |
| 1777909063 | 13.89° C | 87% | 1015.4 hPa | 0 mm | - | 95 W/m² | - |
| 1777908760 | 13.89° C | 88% | 1015.5 hPa | 0 mm | - | 90 W/m² | - |
| 1777908458 | 13.89° C | 88% | 1015.5 hPa | 0 mm | - | 75 W/m² | - |
| 1777908154 | 13.89° C | 89% | 1015.4 hPa | 0 mm | - | 73 W/m² | - |
| 1777907850 | 13.33° C | 90% | 1015.5 hPa | 0 mm | - | 88 W/m² | - |
| 1777907546 | 13.33° C | 89% | 1015.5 hPa | 0 mm | - | 84 W/m² | - |
| 1777907242 | 13.33° C | 90% | 1015.6 hPa | 0 mm | - | 67 W/m² | - |
| 1777906939 | 13.33° C | 90% | 1015.5 hPa | 0 mm | - | 59 W/m² | - |
| 1777906637 | 13.33° C | 91% | 1015.5 hPa | 0 mm | - | 62 W/m² | - |
| 1777906332 | 13.33° C | 91% | 1015.3 hPa | 0 mm | - | 82 W/m² | - |
* Rain latest hour (hover to see other rain measurements)
** Current wind speed in m/s (hover to see current wind gust speed)